{"data":{"norad_id":64156,"epoch":"2026-05-25T02:22:12.914112Z","epoch_age_seconds":73660,"freshness":"FRESH","line1":"1 64156U 25112L   26145.09876058  .00000890  00000+0  65763-4 0  9991","line2":"2 64156  97.4493 196.4442 0000996 162.5737 197.5524 15.05649111 54808","mean_motion":15.05649111,"eccentricity":9.96e-5,"inclination_deg":97.4493,"raan_deg":196.4442,"arg_perigee_deg":162.5737,"mean_anomaly_deg":197.5524,"bstar":6.5763e-5,"rev_number":5480,"period_min":95.639813385444,"perigee_km":548.82388693207,"apogee_km":550.20387498756,"semimajor_km":6927.6508809598,"source":"CELESTRAK","updated_at":"2026-05-25T13:38:20.304724Z"}}